This is the latest recevied weather packets stored in our database for station/object K7KAZ. If no packets are shown the sender has not sent any weather packets the latest 10 day(s).
| Time | Temp. | Humidity | Pressure | Rain* | Wind** | Luminosity | Snow |
|---|---|---|---|---|---|---|---|
| 1777660206 | 25.56° C | 32% | 1014.7 hPa | 0 mm | - | 648 W/m² | - |
| 1777659903 | 26.11° C | 32% | 1014.8 hPa | 0 mm | - | 796 W/m² | - |
| 1777659599 | 25.56° C | 32% | 1015.1 hPa | 0 mm | - | 743 W/m² | - |
| 1777659297 | 26.11° C | 32% | 1014.8 hPa | 0 mm | - | 697 W/m² | - |
| 1777658994 | 26.11° C | 32% | 1015 hPa | 0 mm | - | 716 W/m² | - |
| 1777658691 | 25.56° C | 33% | 1015.1 hPa | 0 mm | - | 696 W/m² | - |
| 1777658386 | 25.56° C | 32% | 1015.2 hPa | 0 mm | - | 729 W/m² | - |
| 1777658084 | 25.56° C | 32% | 1015.2 hPa | 0 mm | - | 727 W/m² | - |
| 1777657780 | 26.11° C | 32% | 1015.3 hPa | 0 mm | - | 752 W/m² | - |
| 1777657478 | 25° C | 34% | 1015.5 hPa | 0 mm | - | 729 W/m² | - |
| 1777657176 | 25.56° C | 33% | 1015.2 hPa | 0 mm | - | 729 W/m² | - |
| 1777656873 | 25° C | 34% | 1015.5 hPa | 0 mm | - | 760 W/m² | - |
| 1777656568 | 25° C | 33% | 1015.3 hPa | 0 mm | - | 588 W/m² | - |
| 1777656265 | 24.44° C | 33% | 1015.7 hPa | 0 mm | - | 803 W/m² | - |
| 1777655960 | 24.44° C | 33% | 1015.3 hPa | 0 mm | - | 810 W/m² | - |
| 1777655656 | 24.44° C | 33% | 1015.5 hPa | 0 mm | - | 791 W/m² | - |
| 1777655353 | 25° C | 32% | 1015.8 hPa | 0 mm | - | 815 W/m² | - |
| 1777655050 | 24.44° C | 34% | 1015.6 hPa | 0 mm | - | 814 W/m² | - |
| 1777654748 | 24.44° C | 35% | 1015.6 hPa | 0 mm | - | 821 W/m² | - |
| 1777654446 | 24.44° C | 35% | 1015.5 hPa | 0 mm | - | 747 W/m² | - |
| 1777654143 | 24.44° C | 35% | 1015.5 hPa | 0 mm | - | 765 W/m² | - |
| 1777653841 | 24.44° C | 35% | 1015.5 hPa | 0 mm | - | 601 W/m² | - |
| 1777653537 | 23.89° C | 35% | 1015.5 hPa | 0 mm | - | 635 W/m² | - |
| 1777653233 | 23.89° C | 37% | 1015.7 hPa | 0 mm | - | 718 W/m² | - |
| 1777652930 | 23.89° C | 36% | 1015.5 hPa | 0 mm | - | 619 W/m² | - |
* Rain latest hour (hover to see other rain measurements)
** Current wind speed in m/s (hover to see current wind gust speed)